Terminal Aerodrome Forecast
Issued by NWS

Home | Current Version | Previous Version | Text Only | Print | Product List | Glossary On
Versions: 1 2 3 4 5 6 7 8 9 10 11 12 13 14 15 16 17 18 19 20 21 22 23 24 25 26 27 28 29 30 31 32 33 34
000
FTUS45 KCYS 180527
TAFRWL
TAF
KRWL 180527Z 1806/1906 VRB03KT P6SM SCT200
     FM181600 25012G18KT P6SM SCT007 BKN015 BKN150=

USA.gov is the U.S. government's official web portal to all federal, state and local government web resources and services.